Погода в Солодовке

Россия / Волгоградская область     48°40′28″N   45°23′30″E
темп.,
°C
ветер,
м/с
пор.,
м/с
влажн.,
%
обл.,
%
осадки,
мм/ч
давл.,
гПа
погр.,
м
4 марта, чт
чт400:00−2сз510810 0.0 1018724
03:00−2зсз510777 0.0 1019781
06:00−2зюз5107813 0.0 1019426
09:00+1зюз914637 0.0 1019706
12:00+4зюз10145133 0.0 10171160
15:00+5зюз9145317 0.0 10161271
18:00+2юз715670 0.0 1015399
21:00+1юз716700 0.0 1015521
5 марта, пт
пт500:00+1юз716780 0.0 1014488
03:00+1юз816830 0.0 1013562
06:00+1юз8168965 0.0 1012631
09:00+3зюз9168282 0.0 1012795
12:00+5зюз101478100 0.0 1012914
15:00+6зюз71379100 0.0 1013812
18:00+4юз61386100 0.0 1013374
21:00+3юз41193100 0.1 1014311
6 марта, сб
сб600:00+4юз51190100 0.1 1013318
03:00+3ююз6138799 0.1 1012346
06:00+2юз7158396 0.0 1011535
09:00+3юз8148498 0.0 1010541
12:00+5зюз71388100 0.1 1010752
15:00+1с6895100 0.4 1011294
18:000ссв6885100 0.1 1012558
21:00−2ссв6979100 0.1 1015667
7 марта, вс
вс700:00−2с5772100 0.0 1016671
03:00−3с5666100 0.0 1018542
06:00−4с346433 0.0 1019414
09:00−3сз115017 0.0 1021467
12:00+1юз34340 0.0 1020936
15:00+3юз69350 0.0 10191673
18:000юз6116518 0.0 1017439
21:00−1юз8136512 0.0 1017677
8 марта, пн
пн800:00−1юз8145945 0.0 1015761
03:00−1юз9155922 0.0 1014783
06:00−1юз916640 0.0 1012810
09:00+1зюз1015573 0.0 10121044
12:00+4зюз10145559 0.0 10111534
15:00+4зюз9126580 0.0 10111390
18:00+1зюз4107796 0.0 1011326
21:00+1юз5108698 0.1 1012344